Location: Rumah Long Bangan
(2.8362°N, 113.7519°E)
Time: 06:37:14
(UTC+00:00)

Okean 1 Rocket - Pass Details

Date: 24 October 2021
Orbit: 607 x 633 km, 82.5° (Epoch: 28 November)

Event Time Altitude Azimuth Distance (km) Brightness Sun altitude
Rises 21:28:42 0° 336° (NNW) 2,908 6.2 -10.5°
Reaches altitude 10° 21:31:13 10° 323° (NW) 2,005 5.2 -9.9°
Maximum altitude 21:34:55 26° 267° (W) 1,250 4.1 -9.0°
Drops below altitude 10° 21:38:38 10° 210° (SSW) 2,013 5.5 -8.0°
Sets 21:41:10 0° 197° (SSW) 2,922 6.5 -7.4°
